GW3750 Weather Reports


time (UTC)temp
C
wind
direction
speed
KPH
gust
KPH
rain 1hr
cm
rain 24hr
cm
rain mn
cm
humidity
%
barometer
mb
20260510104527 16 10 0.0 0.0 0.00 1.70 0.00 96 1015.2
20260510104005 16 10 0.0 0.0 0.00 1.70 0.00 96 1015.0
20260510103505 16 10 0.0 0.0 0.00 1.70 0.00 96 1015.0
20260510103006 16 10 0.0 0.0 0.00 1.70 0.00 96 1015.0
20260510102504 17 10 0.0 0.0 0.00 1.70 0.00 96 1014.9
20260510102003 16 10 0.0 0.0 0.00 1.70 0.00 96 1014.7
20260510101507 17 10 0.0 0.0 0.00 1.70 0.00 96 1014.6
20260510101005 17 10 0.0 0.0 0.00 1.70 0.00 96 1014.6
20260510100504 17 10 0.0 0.0 0.00 1.70 0.00 96 1014.7
20260510100015 17 10 0.0 1.6 0.00 1.70 0.00 96 1014.6
20260510095507 17 10 0.0 1.6 0.00 1.70 0.00 96 1014.6
20260510095008 17 10 0.0 0.0 0.00 1.70 0.00 96 1014.5
20260510094531 17 10 0.0 0.0 0.00 1.70 0.00 96 1014.5
20260510094004 17 10 0.0 1.6 0.00 1.70 0.00 96 1014.4
20260510093507 17 10 0.0 3.2 0.00 1.70 0.00 96 1014.5
20260510093016 17 10 0.0 3.2 0.00 1.70 0.00 96 1014.4
20260510092505 17 10 0.0 3.2 0.00 1.70 0.00 96 1014.4
20260510092011 17 3 0.0 3.2 0.00 1.70 0.00 96 1014.4
20260510091517 17 4 1.6 3.2 0.00 1.70 0.00 96 1014.4
20260510091003 17 10 1.6 1.6 0.00 1.70 0.00 96 1014.5
20260510090504 17 14 0.0 1.6 0.00 1.70 0.00 96 1014.6
20260510090010 17 14 0.0 3.2 0.00 1.70 0.00 96 1014.5
20260510085504 17 70 1.6 3.2 0.00 1.70 0.00 96 1014.5
20260510085008 17 183 0.0 1.6 0.00 1.70 0.00 96 1014.6
20260510084515 17 182 0.0 1.6 0.00 1.70 0.00 96 1014.6
20260510084005 17 198 0.0 0.0 0.00 1.70 0.00 96 1014.5
20260510083507 17 198 0.0 0.0 0.00 1.70 0.00 96 1014.6
20260510083018 17 198 0.0 0.0 0.00 1.70 0.00 96 1014.6
20260510082507 17 198 0.0 0.0 0.00 1.70 0.00 96 1014.5
20260510082011 17 198 0.0 0.0 0.00 1.70 0.00 96 1014.5
20260510081532 17 198 0.0 0.0 0.00 1.70 0.00 96 1014.4
20260510081009 17 198 0.0 0.0 0.00 1.70 0.00 96 1014.3
20260510080507 17 198 0.0 0.0 0.00 1.70 0.00 96 1014.2
20260510080020 17 198 0.0 0.0 0.00 1.70 0.00 96 1014.2
20260510075503 17 198 0.0 0.0 0.00 1.70 0.00 96 1014.1
20260510075004 17 198 0.0 0.0 0.00 1.70 0.00 96 1013.9
20260510074510 17 198 0.0 0.0 0.00 1.70 0.00 96 1014.0
20260510074006 17 198 0.0 0.0 0.00 1.70 0.00 96 1013.9
20260510073504 17 199 0.0 0.0 0.00 1.70 0.00 96 1013.8
20260510073018 17 199 0.0 0.0 0.00 1.70 0.00 96 1013.9
20260510072505 17 200 0.0 0.0 0.00 1.70 0.00 96 1014.0
20260510072010 17 200 0.0 0.0 0.00 1.70 0.00 96 1014.0
20260510071520 17 199 0.0 0.0 0.00 1.70 0.00 96 1014.0
20260510071006 17 199 0.0 0.0 0.00 1.70 0.00 96 1014.0
20260510070511 17 199 0.0 0.0 0.00 1.70 0.00 96 1014.1
20260510070022 17 199 0.0 0.0 0.00 1.70 0.00 96 1014.0
20260510065508 17 199 0.0 1.6 0.00 1.70 0.00 96 1013.9
20260510065011 17 199 0.0 1.6 0.00 1.70 0.00 96 1014.0
20260510064522 17 131 0.0 1.6 0.00 1.70 0.00 96 1014.0
20260510064007 17 273 0.0 1.6 0.00 1.70 0.00 96 1014.1
20260510063503 17 273 0.0 1.6 0.00 1.70 0.00 96 1014.2
20260510063016 17 273 0.0 1.6 0.00 1.70 0.00 96 1014.2
20260510062507 17 273 0.0 3.2 0.00 1.70 0.00 96 1014.2
20260510062013 17 273 0.0 3.2 0.00 1.73 0.00 96 1014.3
20260510061525 17 273 0.0 1.6 0.00 1.73 0.00 96 1014.3
20260510061010 17 273 0.0 0.0 0.00 1.73 0.00 96 1014.2
20260510060513 17 273 0.0 0.0 0.00 1.73 0.00 96 1014.2
20260510060006 17 273 0.0 0.0 0.00 1.73 0.00 96 1014.1
20260510055503 17 273 0.0 0.0 0.00 1.73 0.00 96 1014.0
20260510055005 17 274 0.0 0.0 0.00 1.73 0.00 96 1014.0
20260510054517 17 273 0.0 0.0 0.00 1.73 0.00 96 1014.1
20260510054003 17 301 0.0 0.0 0.00 1.73 0.00 96 1014.2
20260510053503 17 39 0.0 0.0 0.00 1.73 0.00 96 1013.9
20260510053011 17 39 0.0 0.0 0.00 1.73 0.00 96 1013.9
20260510052504 17 39 0.0 0.0 0.00 1.73 0.00 96 1013.9
20260510052010 17 39 0.0 0.0 0.00 1.73 0.00 96 1013.9
20260510051532 17 39 0.0 0.0 0.00 1.73 0.00 96 1014.0
20260510051006 17 39 0.0 0.0 0.00 1.73 0.00 96 1014.0
20260510050505 17 39 0.0 0.0 0.00 1.73 0.00 96 1014.0
20260510050004 17 39 0.0 0.0 0.00 1.73 0.00 96 1014.0
20260510045508 17 39 0.0 0.0 0.00 1.73 1.73 96 1014.1
20260510045004 17 39 0.0 1.6 0.00 1.73 1.73 96 1014.2
20260510044508 17 39 0.0 1.6 0.00 1.73 1.73 96 1014.3
20260510044005 17 39 0.0 0.0 0.00 1.73 1.73 96 1014.1
20260510043503 17 98 0.0 0.0 0.00 1.73 1.73 96 1014.1
20260510043017 17 66 0.0 0.0 0.00 1.73 1.73 96 1014.2
20260510042505 17 66 0.0 0.0 0.00 1.73 1.73 96 1014.3
20260510042005 17 66 0.0 0.0 0.00 1.73 1.73 96 1014.3
20260510041519 17 66 0.0 0.0 0.00 1.73 1.73 96 1014.4
20260510041005 17 66 0.0 0.0 0.00 1.73 1.73 96 1014.4
20260510040505 17 66 0.0 0.0 0.00 1.73 1.73 95 1014.6
20260510040017 17 66 0.0 0.0 0.00 1.73 1.73 95 1014.8
20260510035505 17 66 0.0 0.0 0.00 1.73 1.73 95 1014.7
20260510035011 17 66 0.0 1.6 0.00 1.73 1.73 95 1014.9
20260510034522 18 66 0.0 1.6 0.00 1.73 1.73 95 1014.9
20260510034007 18 66 0.0 1.6 0.00 1.73 1.73 96 1014.9
20260510033504 18 66 0.0 1.6 0.00 1.73 1.73 96 1014.8
20260510033005 18 65 0.0 1.6 0.00 1.73 1.73 95 1014.9
20260510032506 18 65 0.0 1.6 0.00 1.73 1.73 95 1014.8
20260510032003 18 82 0.0 3.2 0.00 1.73 1.73 95 1014.7
20260510031524 18 82 0.0 3.2 0.00 1.73 1.73 95 1014.4
20260510031004 18 65 0.0 1.6 0.00 1.73 1.73 95 1014.4
20260510030510 18 20 0.0 1.6 0.00 1.73 1.73 95 1014.6
20260510030016 18 20 1.6 3.2 0.00 1.73 1.73 95 1014.5
20260510025505 18 352 1.6 3.2 0.00 1.73 1.73 95 1014.6
20260510025006 18 58 1.6 3.2 0.00 1.73 1.73 95 1014.4
20260510024521 18 58 0.0 1.6 0.00 1.73 1.73 95 1014.7
20260510024006 18 58 0.0 1.6 0.00 1.73 1.73 95 1014.8
20260510023510 18 58 0.0 1.6 0.00 1.73 1.73 95 1014.7
20260510023022 18 58 0.0 3.2 0.00 1.73 1.73 95 1014.5
20260510022506 18 58 1.6 3.2 0.00 1.73 1.73 95 1014.3
20260510022003 18 30 0.0 1.6 0.00 1.73 1.73 95 1014.4
20260510021509 18 335 0.0 1.6 0.00 1.73 1.73 95 1014.7
20260510021004 18 334 0.0 1.6 0.00 1.73 1.73 94 1014.6
20260510020504 18 277 0.0 1.6 0.00 1.73 1.73 94 1014.6
20260510020009 18 277 0.0 1.6 0.00 1.73 1.73 94 1014.7
20260510015508 18 277 0.0 0.0 0.00 1.73 1.73 94 1014.5
20260510015008 18 277 0.0 1.6 0.00 1.73 1.73 94 1014.5
20260510014521 18 277 0.0 3.2 0.00 1.73 1.73 94 1014.3
20260510014006 18 277 0.0 3.2 0.00 1.73 1.73 94 1014.5
20260510013510 18 277 1.6 1.6 0.00 1.73 1.73 94 1014.3
20260510013021 18 343 0.0 1.6 0.00 1.73 1.73 93 1014.1
20260510012511 18 343 0.0 1.6 0.00 1.73 1.73 93 1013.9
20260510012015 18 343 0.0 1.6 0.00 1.73 1.73 93 1013.8
20260510011528 18 344 0.0 1.6 0.00 1.73 1.73 93 1013.7
20260510011006 18 326 0.0 1.6 0.00 1.73 1.73 93 1013.7
20260510010505 18 326 0.0 3.2 0.00 1.73 1.73 93 1013.7
20260510010008 18 326 1.6 3.2 0.00 1.73 1.73 93 1013.8
20260510005507 18 141 0.0 1.6 0.00 1.73 1.73 93 1013.8
20260510005008 18 243 0.0 1.6 0.00 1.73 1.73 93 1013.9
20260510004522 18 243 0.0 6.4 0.00 1.73 1.73 93 1014.1
20260510004011 18 243 0.0 8.0 0.00 1.73 1.73 93 1013.8
20260510003511 18 326 6.4 8.0 0.00 1.73 1.73 93 1014.0
20260510003018 18 104 1.6 6.4 0.00 1.73 1.73 92 1013.1
20260510002512 18 122 1.6 6.4 0.00 1.73 1.73 92 1013.1
20260510002008 19 117 0.0 0.0 0.00 1.73 1.73 92 1013.2
20260510001522 19 167 0.0 0.0 0.00 1.73 1.73 92 1013.3
20260510001009 19 204 0.0 0.0 0.00 1.73 1.73 92 1013.4
20260510000512 19 204 0.0 0.0 0.00 1.73 1.73 92 1013.5
20260510000030 19 204 0.0 1.6 0.00 1.73 1.73 91 1013.5
20260509235508 19 195 0.0 1.6 0.00 1.73 1.73 91 1013.4
20260509235006 19 158 0.0 0.0 0.00 1.73 1.73 91 1013.3
20260509234527 19 159 0.0 1.6 0.00 1.73 1.73 91 1013.4
20260509234007 19 158 0.0 1.6 0.00 1.73 1.73 91 1013.3
20260509233504 19 177 0.0 1.6 0.00 1.73 1.73 91 1013.3
20260509233016 19 200 0.0 1.6 0.00 1.73 1.73 91 1013.4
20260509232508 19 200 0.0 1.6 0.00 1.73 1.73 90 1013.5
20260509232006 19 218 0.0 0.0 0.00 1.73 1.73 90 1013.4
20260509231523 19 218 0.0 0.0 0.00 1.73 1.73 90 1013.4
20260509231007 19 204 0.0 3.2 0.00 1.73 1.73 90 1013.3
20260509230509 19 202 0.0 3.2 0.00 1.73 1.73 90 1013.2
20260509230026 19 196 0.0 3.2 0.00 1.73 1.73 90 1013.3
20260509225510 19 210 0.0 1.6 0.00 1.73 1.73 89 1013.2
20260509225013 19 247 0.0 1.6 0.00 1.73 1.73 90 1013.0
20260509224527 19 262 0.0 1.6 0.00 1.73 1.73 89 1013.0
20260509224008 19 262 0.0 3.2 0.00 1.73 1.73 90 1012.9
20260509223511 19 262 1.6 3.2 0.00 1.73 1.73 89 1012.9
20260509223018 19 210 0.0 3.2 0.00 1.73 1.73 89 1012.9
20260509222508 19 133 0.0 3.2 0.00 1.73 1.73 89 1012.8
20260509222008 20 167 0.0 3.2 0.00 1.73 1.73 90 1012.7
20260509221525 19 257 0.0 3.2 0.00 1.73 1.73 89 1012.8
20260509221008 20 170 0.0 6.4 0.00 1.75 1.73 89 1012.7
20260509220512 19 208 1.6 6.4 0.00 1.75 1.73 90 1012.6
20260509220023 19 257 0.0 3.2 0.00 1.80 1.73 89 1012.5
20260509215508 19 279 0.0 1.6 0.00 1.80 1.73 90 1012.5
20260509215013 19 138 0.0 1.6 0.00 1.80 1.73 90 1012.3
20260509214527 19 138 0.0 3.2 0.00 1.83 1.73 90 1012.2
20260509214012 19 195 1.6 6.4 0.00 1.83 1.73 90 1012.4
20260509213512 19 211 1.6 6.4 0.00 1.83 1.73 90 1012.4
20260509213026 19 188 3.2 6.4 0.00 1.83 1.73 89 1012.2
20260509212510 19 265 0.0 4.8 0.00 1.85 1.73 90 1012.2
20260509212013 19 244 1.6 4.8 0.00 1.85 1.73 90 1012.1
20260509211527 19 219 1.6 4.8 0.00 1.88 1.73 90 1012.1
20260509211007 19 215 1.6 9.7 0.00 1.88 1.73 90 1012.2
20260509210506 19 195 1.6 9.7 0.00 1.91 1.73 91 1012.4
20260509210036 19 242 1.6 4.8 0.00 1.93 1.73 90 1012.5
20260509205503 19 227 1.6 3.2 0.00 1.98 1.73 91 1012.4
20260509205003 19 195 1.6 3.2 0.00 2.03 1.73 91 1012.5
20260509204503 19 198 1.6 8.0 0.00 2.08 1.73 90 1012.4
20260509204005 19 224 1.6 8.0 0.00 2.13 1.73 91 1012.5
20260509203503 19 205 1.6 6.4 0.00 2.18 1.73 91 1012.9
20260509203011 19 206 3.2 6.4 0.00 2.24 1.73 91 1012.9
20260509202505 19 129 3.2 6.4 0.00 2.26 1.73 91 1012.7
20260509202004 19 215 1.6 8.0 0.00 2.31 1.73 91 1012.9
20260509201509 19 163 1.6 8.0 0.00 2.39 1.73 91 1012.9
20260509201004 19 208 1.6 6.4 0.00 2.41 1.73 91 1013.1
20260509200505 19 224 1.6 4.8 0.00 2.46 1.73 91 1013.1
20260509200018 19 211 0.0 6.4 0.00 2.51 1.73 91 1012.9
20260509195508 19 221 0.0 6.4 0.00 2.54 1.73 91 1012.7
20260509195007 19 239 3.2 6.4 0.00 2.57 1.73 91 1012.7
20260509194529 19 255 3.2 6.4 0.00 2.59 1.73 91 1012.7
20260509194009 19 212 0.0 6.4 0.00 2.62 1.73 92 1012.7
20260509193504 19 245 1.6 8.0 0.00 2.64 1.73 91 1012.7
20260509193007 19 234 3.2 8.0 0.00 2.72 1.73 91 1012.9
20260509192503 19 230 0.0 4.8 0.00 2.74 1.73 92 1012.9
20260509192005 19 266 1.6 8.0 0.00 2.77 1.73 92 1012.9
20260509191508 19 245 4.8 8.0 0.00 2.79 1.73 91 1013.1
20260509191006 19 264 1.6 8.0 0.00 2.82 1.73 92 1012.9
20260509190504 19 186 1.6 8.0 0.00 2.84 1.73 92 1013.0
20260509190014 18 217 3.2 8.0 0.00 2.84 1.73 92 1013.1
20260509185507 18 250 1.6 8.0 0.00 2.84 1.73 92 1013.0
20260509185005 18 200 3.2 8.0 0.00 2.87 1.73 92 1012.8
20260509184534 18 229 3.2 8.0 0.00 2.87 1.73 93 1013.0
20260509184005 18 229 3.2 8.0 0.00 2.87 1.73 93 1013.0
20260509183509 18 207 1.6 8.0 0.00 2.87 1.73 93 1013.0
20260509183023 18 268 1.6 8.0 0.00 2.87 1.73 93 1013.0
20260509182509 18 77 1.6 8.0 0.00 2.90 1.73 94 1013.1
20260509182003 18 212 1.6 9.7 0.00 2.90 1.73 94 1013.0
20260509181507 18 231 3.2 9.7 0.00 2.92 1.73 94 1012.9
20260509181003 18 193 3.2 8.0 0.00 2.92 1.73 95 1012.9
20260509180504 18 188 1.6 8.0 0.00 2.95 1.73 95 1013.0
20260509180022 18 212 3.2 8.0 0.00 2.95 1.73 95 1013.0
20260509175506 18 176 3.2 8.0 0.00 2.95 1.73 95 1012.9
20260509175009 18 210 0.0 3.2 0.00 2.95 1.73 96 1012.8
20260509174516 18 259 1.6 3.2 0.00 2.97 1.73 96 1012.8
20260509174008 18 240 1.6 4.8 0.00 3.05 1.73 95 1012.8
20260509173506 18 28 0.0 4.8 0.00 3.05 1.73 96 1012.7
20260509173050 18 233 1.6 4.8 0.00 3.07 1.73 96 1013.0
20260509172510 18 146 1.6 1.6 0.00 3.07 1.73 96 1013.1
20260509172008 18 138 0.0 1.6 0.00 3.10 1.73 96 1013.2
20260509171534 18 218 0.0 1.6 0.00 3.12 1.73 96 1013.2
20260509171007 18 207 0.0 1.6 0.00 3.15 1.73 96 1013.3
20260509170511 18 207 0.0 1.6 0.00 3.17 1.73 96 1013.3
20260509170012 18 207 0.0 1.6 0.00 3.20 1.73 96 1013.5
20260509165504 18 207 0.0 3.2 0.00 3.20 1.73 96 1013.4
20260509165003 18 207 0.0 3.2 0.00 3.23 1.73 96 1013.7
20260509164515 18 264 0.0 1.6 0.00 3.25 1.73 96 1014.1
20260509164006 17 264 0.0 1.6 0.00 3.28 1.73 96 1014.1
20260509163507 18 301 0.0 1.6 0.00 3.30 1.73 96 1014.1
20260509163023 17 301 0.0 3.2 0.00 3.30 1.73 96 1014.1
20260509162509 17 301 0.0 4.8 0.00 3.33 1.73 96 1014.0
20260509162009 17 89 3.2 4.8 0.00 3.35 1.73 96 1013.9
20260509161527 17 13 0.0 4.8 0.00 3.38 1.73 96 1013.9
20260509161010 17 91 0.0 4.8 0.00 3.40 1.73 97 1013.7
20260509160509 17 89 1.6 4.8 0.00 3.43 1.73 96 1013.7
20260509160026 17 321 0.0 4.8 0.00 3.45 1.73 96 1013.5
20260509155509 17 72 1.6 4.8 0.00 3.45 1.73 96 1013.4
20260509155012 17 88 1.6 3.2 0.00 3.45 1.73 96 1013.3
20260509154512 17 37 0.0 6.4 0.00 3.48 1.73 96 1013.5
20260509154003 17 45 1.6 6.4 0.00 3.48 1.73 96 1013.2
20260509153507 17 127 0.0 6.4 0.00 3.48 1.73 96 1013.1
20260509153022 17 68 0.0 6.4 0.03 3.48 1.73 96 1013.2
20260509152507 17 69 1.6 8.0 0.03 3.48 1.73 96 1013.3
20260509152009 17 130 0.0 9.7 0.03 3.48 1.73 96 1013.2
20260509151528 17 158 3.2 9.7 0.05 3.48 1.73 96 1013.2
20260509151011 17 101 4.8 8.0 0.10 3.48 1.73 96 1013.1
20260509150511 17 230 3.2 12.9 0.13 3.48 1.73 96 1013.2
20260509150024 17 135 3.2 12.9 0.18 3.48 1.73 96 1012.8
20260509145509 17 63 3.2 14.5 0.25 3.48 1.73 96 1012.7
20260509145015 17 81 4.8 16.1 0.30 3.48 1.73 96 1012.6
20260509144530 17 78 4.8 16.1 0.36 3.48 1.73 96 1013.3
20260509144008 17 144 4.8 19.3 0.38 3.48 1.73 96 1013.1
20260509143518 17 196 4.8 19.3 0.41 3.48 1.73 96 1013.2
20260509143028 17 68 6.4 19.3 0.43 3.45 1.70 96 1012.6
20260509142507 17 80 6.4 17.7 0.46 3.45 1.70 96 1012.9
20260509142006 17 117 8.0 17.7 0.51 3.45 1.70 96 1012.8
20260509141515 17 108 8.0 14.5 0.53 3.43 1.68 96 1012.5
20260509141008 17 55 4.8 14.5 0.51 3.38 1.63 96 1013.1
20260509140510 17 98 3.2 9.7 0.53 3.35 1.60 96 1013.3
20260509140023 17 89 1.6 8.0 0.48 3.30 1.55 96 1013.3
20260509135507 17 99 3.2 8.0 0.43 3.23 1.47 96 1013.4
20260509135008 17 46 3.2 6.4 0.41 3.17 1.42 96 1013.6
20260509134527 17 107 3.2 9.7 0.41 3.12 1.37 96 1013.5
20260509134009 17 68 3.2 9.7 0.41 3.10 1.32 96 1013.4
20260509133511 17 57 4.8 8.0 0.41 3.07 1.32 96 1013.5
20260509133028 17 81 1.6 4.8 0.38 3.02 1.27 96 1013.7
20260509132511 17 107 1.6 4.8 0.41 2.97 1.24 96 1013.9
20260509132015 17 14 0.0 4.8 0.41 2.95 1.19 96 1013.9
20260509131537 17 23 1.6 4.8 0.41 2.90 1.14 96 1013.9
20260509131012 17 41 1.6 3.2 0.43 2.87 1.12 96 1014.1
20260509130509 17 106 0.0 4.8 0.53 2.82 1.07 96 1014.5
20260509130050 17 84 0.0 9.7 0.64 2.82 1.07 96 1014.6
20260509125510 17 75 0.0 11.3 0.64 2.79 1.04 96 1014.5
20260509125008 17 31 4.8 14.5 0.69 2.77 1.02 96 1014.2
20260509124531 17 354 3.2 14.5 0.69 2.72 0.97 96 1013.9
20260509124009 17 13 6.4 14.5 0.76 2.67 0.94 96 1013.9
20260509123512 17 18 1.6 9.7 0.84 2.64 0.91 96 1014.3
20260509123046 17 346 1.6 6.4 0.84 2.64 0.89 96 1014.1
20260509122511 17 11 1.6 4.8 0.81 2.59 0.84 96 1014.4
20260509122012 17 56 1.6 4.8 0.76 2.54 0.79 96 1014.8
20260509121528 17 26 1.6 12.9 0.71 2.49 0.74 96 1014.7
20260509121010 17 347 3.2 19.3 0.66 2.44 0.69 96 1014.4
20260509120508 17 337 6.4 19.3 0.51 2.29 0.53 96 1014.1
20260509120036 17 39 6.4 22.5 0.41 2.18 0.43 96 1014.1
20260509115507 17 46 6.4 24.1 0.38 2.16 0.41 96 1014.1
20260509115010 17 320 11.3 24.1 0.30 2.08 0.33 96 1013.9
20260509114522 17 237 4.8 20.9 0.25 2.03 0.28 97 1014.0
20260509114008 17 15 9.7 20.9 0.15 1.93 0.18 97 1014.0
20260509113510 17 328 1.6 9.7 0.05 1.83 0.08 97 1013.9
20260509113006 17 330 1.6 3.2 0.03 1.80 0.05 97 1013.2
20260509112504 17 316 0.0 1.6 0.00 1.78 0.03 97 1012.6
20260509112004 17 316 0.0 1.6 0.00 1.78 0.03 97 1012.4
20260509111508 17 302 0.0 3.2 0.00 1.78 0.03 97 1012.1
20260509111004 17 302 0.0 4.8 0.00 1.78 0.03 97 1012.2
20260509110503 17 300 1.6 4.8 0.00 1.78 0.03 97 1012.0
20260509110015 17 37 1.6 4.8 0.00 1.78 0.03 97 1011.8
20260509105507 17 14 1.6 4.8 0.00 1.78 0.03 97 1011.9
20260509105009 17 10 1.6 4.8 0.00 1.78 0.03 97 1011.9